Flag for Kazakhstan Weather past 2 weeks in Almaty, Kazakhstan

Now
63 °F

Mostly cloudy.


Feels Like: 63 °F
Forecast: 56 / 65 °F
Wind: 8 mph from East

Location: Almaty Airport

Current Time: Oct 1, 2014 at 5:29:24 AM

Latest Report: Oct 1, 2014 at 4:30 AM


Visibility: N/A

Pressure: 30.01 "Hg

Humidity: 49%

Dew point: 43 °F

Location of AlmatyLocation

Historic Weather in Almaty — Graph

°F

Almaty temperature yesterday

Maximum temperature yesterday: 77 °F (at 4:30 PM)
Minimum temperature yesterday: 46 °F (at 3:30 AM)
Average temperature yesterday: 60 °F

Past Weeks' High & Low Weather Summary

 TemperatureHumidityPressure
High91 °F (Sep 18, 2:00 PM)94% (Sep 28, 12:00 AM)30.45 "Hg (Sep 28, 12:00 AM)
Low36 °F (Sep 20, 5:00 AM)11% (Sep 18, 2:00 PM)29.65 "Hg (Sep 27, 1:00 PM)
Average61 °F51%29.99 "Hg
* Reported Sep 16 4:00 AM — Oct 1 4:30 AM, Almaty, Weather by CustomWeather, © 2014

Note: Actual official high and low records may vary slightly from our data, if they occured in-between our weather recording intervals... More about our weather records

Advertising

Almaty weather history for previous 24 hours

 ConditionsComfort  
Time TempWeatherWind HumidityBarometerVisibility
4:30 AM
Oct 1
63 °FMostly cloudy.8 mph49%30.01 "HgN/A
3:30 AM63 °FMostly cloudy.15 mph45%29.95 "HgN/A
2:30 AM63 °FMostly cloudy.10 mph45%29.98 "HgN/A
1:30 AM63 °FMostly cloudy.15 mph45%29.98 "HgN/A
12:30 AM64 °FMostly cloudy.22 mph40%29.95 "HgN/A
11:30 PM
Sep 30
63 °FMostly cloudy.6 mph56%30.01 "HgN/A
10:30 PM63 °FMostly cloudy.8 mph52%30.01 "HgN/A
9:30 PM61 °FMostly cloudy.3 mph55%29.95 "HgN/A
8:30 PM63 °FPartly cloudy.8 mph52%29.95 "HgN/A
7:30 PM64 °FPartly cloudy.1 mph46%29.98 "HgN/A
6:30 PM68 °FPartly cloudy.3 mph38%29.95 "HgN/A
5:30 PM72 °FBroken clouds.10 mph29%29.89 "HgN/A
4:30 PM77 °FBroken clouds.13 mph22%29.89 "HgN/A
3:30 PM75 °FBroken clouds.10 mph22%29.92 "HgN/A
2:30 PM73 °FBroken clouds.6 mph29%29.95 "HgN/A
1:30 PM72 °FBroken clouds.3 mph31%30.01 "HgN/A
12:30 PM68 °FPartly sunny.3 mph43%30.04 "HgN/A
11:30 AM64 °FPartly sunny.3 mph49%30.07 "HgN/A
10:30 AM61 °FPartly sunny.3 mph55%30.07 "HgN/A
9:30 AM55 °FPartly sunny.1 mph63%30.07 "HgN/A
8:30 AM52 °FPartly sunny.No wind77%30.07 "HgN/A
7:30 AM48 °FPartly sunny.3 mph82%30.07 "HgN/A
6:30 AM46 °FPartly sunny.1 mph82%30.07 "HgN/A
5:30 AM48 °FPassing clouds.1 mph82%30.07 "HgN/A
Weather by CustomWeather, © 2014

See weather overviewHow to use our weather pages